2020�N�x�@��C������Ԃɂ�鑪�茋��,,,,,,,,,,,,,,,
,,,,,,,,,,,,,,,
�P�@����n�_,,,,,,,,,,,,,,,
�t����s���͌ˁi�t����s���͌˒�5����9�Ԓn3),,,,,,,,,,,,,,,
,,,,,,,,,,,,,,,
�Q�@���Ԓl�i�m��l�j��2020�N6��10���`2020�N7��2��,,,,,,,,,,,,,,,
,,,,,,,,,,,,,,,
,�N,��,��,��,SO2,SPM,Ox,CO,NO,NO2,PM2.5,���x,���x,����,����
,,,,,ppm,mg/m3,ppm,ppm,ppm,ppm,��g/m3,��,%,�ő�,m/s
H03,2020,6,10,1,�Z����,0.013,0.032,�Z����,�Z����,�Z����,11,22.5,78.6,ENE,1.3
H03,2020,6,10,2,0.001,0.012,0.035,0.3,0.001,0.006,9,22.5,78,E,1.3
H03,2020,6,10,3,0.001,0.014,0.03,0.3,0,0.008,8,21.9,79.2,NE,1.3
H03,2020,6,10,4,0.001,0.01,0.03,0.3,0.001,0.008,8,22.1,76.3,ENE,0.8
H03,2020,6,10,5,0.001,0.013,0.034,0.3,0.001,0.008,8,21.9,73.8,ESE,0.8
H03,2020,6,10,6,0.002,0.011,0.029,0.3,0.002,0.01,9,22.7,67.8,NE,1.8
H03,2020,6,10,7,0.002,0.012,0.031,0.3,0.003,0.01,11,25.2,57.3,NE,1.7
H03,2020,6,10,8,0.002,0.012,0.043,0.3,0.003,0.007,7,25.8,57.8,ESE,1.3
H03,2020,6,10,9,0.001,0.01,0.049,0.3,0.004,0.007,6,25.8,60.7,SE,2.4
H03,2020,6,10,10,0.001,0.011,0.048,0.3,0.004,0.007,9,25.4,69.4,SSW,1.6
H03,2020,6,10,11,0.001,0.013,0.045,0.3,0.005,0.008,10,26.5,62.7,S,1.4
H03,2020,6,10,12,0.001,0.009,0.045,0.3,0.006,0.004,4,26.8,61.3,ESE,3
H03,2020,6,10,13,0.001,0.007,0.043,0.3,0.003,0.004,5,26.5,63.9,SE,3.7
H03,2020,6,10,14,0.001,0.005,0.044,0.2,0.003,0.004,3,27.8,59.8,SSE,2.4
H03,2020,6,10,15,0.001,0.004,0.038,0.2,0.002,0.005,5,24.2,88.8,SSE,1.2
H03,2020,6,10,16,0.001,0.006,0.035,0.2,0.004,0.008,5,23.3,87.4,SE,3.2
H03,2020,6,10,17,0.001,0.005,0.035,0.2,0.002,0.005,3,23.6,85.7,SE,3.6
H03,2020,6,10,18,0.001,0.001,0.029,0.2,0.002,0.005,3,23.1,82.5,ESE,2.9
H03,2020,6,10,19,0.001,0.002,0.027,0.2,0.002,0.007,1,22.4,87.9,E,2.3
H03,2020,6,10,20,0.001,0.004,0.026,0.2,0.001,0.005,3,23,85.8,ESE,2.3
H03,2020,6,10,21,0.001,0.005,0.025,0.2,0,0.004,3,23.3,85.3,ESE,2
H03,2020,6,10,22,0.001,0.004,0.027,0.2,0.001,0.003,3,23.1,88,ESE,2.8
H03,2020,6,10,23,0.001,0.007,0.026,0.2,0,0.004,5,22.7,93.1,ESE,3
H03,2020,6,10,24,0.001,0.007,0.025,0.2,0,0.004,2,22.8,92.2,ESE,2.8
H03,2020,6,11,1,0.001,0.005,0.024,0.2,0,0.004,3,23.3,92.8,SE,2.7
H03,2020,6,11,2,0.001,0.01,0.021,0.2,0,0.004,5,23.7,91,SE,2.3
H03,2020,6,11,3,0.001,0.015,0.018,0.2,0.001,0.003,4,23.9,90.7,SE,2.2
H03,2020,6,11,4,0.001,0.017,0.016,0.2,0.001,0.003,5,24,90.3,SE,2.3
H03,2020,6,11,5,0.001,0.021,0.015,0.2,0.001,0.004,6,24.1,89.9,SE,2.7
H03,2020,6,11,6,0.001,0.021,0.013,0.2,0.002,0.004,7,24.6,86.4,SE,2
H03,2020,6,11,7,0.001,0.018,0.013,0.2,0.005,0.005,7,25.4,82.9,SE,2.4
H03,2020,6,11,8,0.001,0.017,0.013,0.2,0.005,0.006,7,25.9,79.9,SE,2.4
H03,2020,6,11,9,0.001,0.014,0.015,0.2,0.005,0.004,6,27.2,72.4,SE,2.4
H03,2020,6,11,10,0.001,0.015,0.016,0.2,0.004,0.005,7,26.6,78,SSE,2.8
H03,2020,6,11,11,0.001,0.013,0.014,0.2,0.005,0.005,6,25.7,86.5,S,1.6
H03,2020,6,11,12,0.001,0.018,0.014,0.2,0.004,0.005,3,25.1,89.8,SSE,2.4
H03,2020,6,11,13,0.001,0.01,0.014,0.2,0.004,0.005,4,24.5,88.8,SE,2.8
H03,2020,6,11,14,0.001,0.008,0.016,0.2,0.004,0.005,4,24.2,91,SE,2.6
H03,2020,6,11,15,0.001,0.008,0.013,0.2,0.003,0.004,2,24.4,92.4,S,1.7
H03,2020,6,11,16,0.001,0.01,0.012,0.2,0.005,0.005,4,24.5,91.7,S,1.2
H03,2020,6,11,17,0.001,0.013,0.012,0.2,0.004,0.008,5,24.5,93.3,SSE,2.2
H03,2020,6,11,18,0.001,0.013,0.012,0.2,0.002,0.01,4,24.4,94.1,SE,2.4
H03,2020,6,11,19,0.001,0.009,0.014,0.2,0.002,0.008,4,24.1,93.3,SE,3.1
H03,2020,6,11,20,0.001,0.006,0.015,0.2,0.001,0.006,3,23.9,94.2,SSE,1.2
H03,2020,6,11,21,0.001,0.005,0.015,0.2,0.001,0.005,1,23.4,95.8,SE,2
H03,2020,6,11,22,0.001,0.004,0.012,0.2,0.001,0.007,1,23.6,96.4,ESE,0.6
H03,2020,6,11,23,0.001,0.004,0.009,0.2,0.001,0.008,2,23.6,97.4,CALM,0.1
H03,2020,6,11,24,0.001,0.002,0.009,0.2,0,0.008,2,23.6,97.7,CALM,0
H03,2020,6,12,1,0.001,0.003,0.008,0.2,0.001,0.01,3,23.6,96.9,W,0.6
H03,2020,6,12,2,0.001,0.002,0.006,0.2,0.003,0.013,2,23.7,96.1,NE,0.4
H03,2020,6,12,3,0.001,0.003,0.01,0.2,0.001,0.009,1,23.6,95.1,CALM,0
H03,2020,6,12,4,0.001,0.005,0.007,0.3,0.004,0.011,2,23.7,96.1,CALM,0
H03,2020,6,12,5,0.001,0.004,0.005,0.3,0.003,0.011,4,23.7,95.9,CALM,0
H03,2020,6,12,6,0.001,0.009,0.005,0.3,0.006,0.012,6,24.2,94.5,SSE,0.4
H03,2020,6,12,7,0.001,0.013,0.004,0.3,0.015,0.015,6,24.6,91.9,SE,0.6
H03,2020,6,12,8,0.001,0.015,0.005,0.3,0.015,0.015,7,25.4,88.5,ESE,0.5
H03,2020,6,12,9,0.002,0.017,0.006,0.3,0.017,0.017,9,26.1,83.7,S,0.4
H03,2020,6,12,10,0.001,0.018,0.009,0.3,0.012,0.021,11,26.7,80.7,SW,0.6
H03,2020,6,12,11,0.002,0.017,0.01,0.3,0.018,0.023,8,27.7,72.8,W,0.9
H03,2020,6,12,12,0.002,0.022,0.02,0.3,0.019,0.021,10,28.4,68.2,NNW,1.8
H03,2020,6,12,13,0.002,0.017,0.036,0.3,0.007,0.013,6,29.5,65.9,NW,1.8
H03,2020,6,12,14,0.001,0.008,0.043,0.3,0.004,0.01,7,30.6,57.9,WSW,1.2
H03,2020,6,12,15,0.001,0.01,0.048,0.3,0.003,0.009,6,29.9,58.5,WSW,0.5
H03,2020,6,12,16,0.002,0.01,0.049,0.3,0.002,0.009,8,29.8,64.7,WSW,1.6
H03,2020,6,12,17,0.001,0.016,0.036,0.3,0.005,0.019,9,27.8,80.5,SW,1.9
H03,2020,6,12,18,0.001,0.015,0.032,0.3,0.004,0.018,8,27.5,80.6,SW,0.8
H03,2020,6,12,19,0.001,0.016,0.03,0.3,0.002,0.019,9,27,84.9,SSW,0.5
H03,2020,6,12,20,0.001,0.015,0.026,0.3,0.003,0.022,7,26.9,85.2,SSW,0.6
H03,2020,6,12,21,0.001,0.019,0.023,0.4,0.002,0.018,9,26.4,88.2,WSW,1.3
H03,2020,6,12,22,0.001,0.015,0.023,0.4,0.001,0.014,7,26,90.1,SW,0.8
H03,2020,6,12,23,0.001,0.013,0.022,0.4,0.001,0.012,6,26,88.6,CALM,0.1
H03,2020,6,12,24,0.001,0.019,0.018,0.4,0.001,0.012,10,25.5,93.3,ESE,0.3
H03,2020,6,13,1,0.001,0.019,0.015,0.4,0.001,0.013,8,25.4,93.4,S,0.5
H03,2020,6,13,2,0.001,0.017,0.014,0.4,0.002,0.013,8,25.2,92.7,SW,0.5
H03,2020,6,13,3,0.001,0.012,0.014,0.4,0,0.011,5,24.6,87,NW,1.2
H03,2020,6,13,4,0.001,0.01,0.018,0.3,0,0.007,7,24.8,86.2,NW,0.7
H03,2020,6,13,5,0.001,0.012,0.017,0.3,0.001,0.007,7,24.3,88.8,SE,0.4
H03,2020,6,13,6,0.001,0.015,0.009,0.3,0.003,0.011,6,24.8,89.5,CALM,0.1
H03,2020,6,13,7,0.001,0.015,0.007,0.3,0.005,0.014,7,24.5,92.4,E,0.7
H03,2020,6,13,8,0.001,0.018,0.008,0.3,0.005,0.014,9,24.9,93.2,E,0.7
H03,2020,6,13,9,0.001,0.014,0.01,0.4,0.006,0.011,9,24.8,91.5,S,1.2
H03,2020,6,13,10,0.001,0.019,0.013,0.4,0.004,0.008,8,25.1,90.2,SW,2.1
H03,2020,6,13,11,0.001,0.009,0.017,0.3,0.002,0.01,6,23.3,88.3,NNW,2
H03,2020,6,13,12,0.001,0.007,0.03,0.3,0.002,0.007,4,22.8,84.9,NNE,2.3
H03,2020,6,13,13,0.001,0.009,0.027,0.3,0.003,0.01,5,22.2,92.1,N,0.8
H03,2020,6,13,14,0.001,0.005,0.028,0.3,0.001,0.007,5,22.5,92.6,WNW,1.1
H03,2020,6,13,15,0.002,0.008,0.024,0.3,0.002,0.009,5,22.7,91.8,NNW,1.3
H03,2020,6,13,16,0.002,0.007,0.022,0.3,0.003,0.009,4,22.8,93.4,WNW,0.8
H03,2020,6,13,17,0.002,0.006,0.02,0.3,0.001,0.01,4,22.7,95.7,W,0.4
H03,2020,6,13,18,0.001,0.005,0.018,0.3,0.001,0.014,4,22.5,94.3,NW,0.9
H03,2020,6,13,19,0.001,0.006,0.02,0.3,0.001,0.012,5,22.7,94.7,W,0.3
H03,2020,6,13,20,0.002,0.006,0.018,0.3,0.001,0.011,5,22.8,95.9,CALM,0.2
H03,2020,6,13,21,0.001,0.007,0.017,0.3,0.001,0.013,4,22.8,95.8,CALM,0.2
H03,2020,6,13,22,0.001,0.006,0.017,0.3,0.001,0.013,3,22.4,96.1,NW,0.9
H03,2020,6,13,23,0.001,0.006,0.019,0.3,0,0.01,4,22.5,96.3,NNW,0.6
H03,2020,6,13,24,0.002,0.003,0.02,0.3,0,0.009,4,22.1,95.9,NW,1
H03,2020,6,14,1,0.002,0.004,0.022,0.3,0,0.008,4,22.2,95.9,WNW,0.9
H03,2020,6,14,2,0.002,0.004,0.019,0.3,0,0.008,3,22.4,95.7,WNW,0.6
H03,2020,6,14,3,0.001,0.005,0.02,0.3,0,0.006,1,22.2,95.8,SW,0.3
H03,2020,6,14,4,0.001,0.004,0.019,0.3,0,0.006,3,22.7,95.6,SW,0.3
H03,2020,6,14,5,0.001,0.007,0.019,0.3,0,0.005,4,22.4,95.6,NNE,0.3
H03,2020,6,14,6,0.001,0.009,0.013,0.3,0.001,0.008,5,22.8,95.8,SW,0.8
H03,2020,6,14,7,0.001,0.008,0.012,0.3,0.002,0.008,5,23.1,95.5,CALM,0
H03,2020,6,14,8,0.001,0.007,0.009,0.3,0.004,0.009,4,23.7,93.7,ESE,1.2
H03,2020,6,14,9,0.001,0.005,0.014,0.3,0.003,0.008,4,24.4,92.8,SE,1.8
H03,2020,6,14,10,0.001,0.006,0.017,0.3,0.002,0.007,4,24.5,92.6,SE,1.8
H03,2020,6,14,11,0.001,0.007,0.019,0.3,0.002,0.006,4,25.2,89.3,ESE,1.2
H03,2020,6,14,12,0.001,0.009,0.025,0.3,0.002,0.004,3,26.8,80.8,E,1.3
H03,2020,6,14,13,0.001,0.008,0.029,0.3,0.001,0.004,5,27,79.2,SSE,0.4
H03,2020,6,14,14,0.001,0.01,0.032,0.3,0.001,0.004,5,27.7,75.4,ESE,1.2
H03,2020,6,14,15,0.001,0.009,0.032,0.3,0.001,0.004,3,27.5,77,ENE,1.3
H03,2020,6,14,16,0.001,0.011,0.031,0.3,0.001,0.005,5,28.4,73.2,S,0.7
H03,2020,6,14,17,0.001,0.014,0.031,0.3,0.001,0.005,6,28.7,76.8,SE,0.6
H03,2020,6,14,18,0.001,0.017,0.025,0.3,0.001,0.005,7,27,86.7,S,1
H03,2020,6,14,19,0.001,0.022,0.017,0.3,0.001,0.007,8,26.2,91,SE,1.2
H03,2020,6,14,20,0.001,0.028,0.017,0.3,0.001,0.005,11,25.9,91.2,SE,1.7
H03,2020,6,14,21,0.001,0.03,0.013,0.3,0,0.005,13,25.7,88.8,S,1.7
H03,2020,6,14,22,0.001,0.035,0.009,0.3,0.001,0.007,15,25.3,94.7,WSW,0.6
H03,2020,6,14,23,0.001,0.029,0.006,0.3,0.003,0.014,13,24.9,94.6,ENE,0.7
H03,2020,6,14,24,0.001,0.03,0.004,0.3,0.001,0.014,12,24.9,95.3,NE,0.4
H03,2020,6,15,1,0.001,0.016,0.013,0.3,0.001,0.008,8,25.4,85.2,NNE,0.4
H03,2020,6,15,2,0.001,0.011,0.022,0.3,0,0.005,7,24.8,87.3,ENE,0.4
H03,2020,6,15,3,0.002,0.008,0.024,0.3,0.003,0.005,5,24.3,88.7,ENE,0.7
H03,2020,6,15,4,0.001,0.007,0.027,0.3,0,0.006,5,25.2,82,WNW,1
H03,2020,6,15,5,0.001,0.009,0.027,0.3,0.003,0.008,5,24.3,86.6,WNW,0.5
H03,2020,6,15,6,0.001,0.013,0.011,0.3,0.012,0.017,6,25.1,82.6,CALM,0.1
H03,2020,6,15,7,0.001,0.009,0.019,0.3,0.009,0.016,5,27.1,64,WNW,0.9
H03,2020,6,15,8,0.002,0.012,0.03,0.3,0.005,0.011,9,28.2,56.8,WNW,0.9
H03,2020,6,15,9,0.002,0.015,0.037,0.3,0.006,0.01,5,29.5,52.2,NW,1.1
H03,2020,6,15,10,0.002,0.017,0.048,0.3,0.005,0.011,8,30.3,50.3,WNW,0.9
H03,2020,6,15,11,0.001,0.016,0.057,0.3,0.003,0.01,11,31.5,47.4,W,2.2
H03,2020,6,15,12,0.002,0.025,0.063,0.3,0.004,0.011,17,33.1,42.8,W,2.4
H03,2020,6,15,13,0.002,0.022,0.065,0.3,0.002,0.008,14,33.6,36.7,W,2.6
H03,2020,6,15,14,0.002,0.02,0.064,0.3,0.003,0.006,13,32.2,41.6,NNW,2
H03,2020,6,15,15,0.001,0.024,0.067,0.3,0.002,0.009,17,32.4,45.1,W,2.5
H03,2020,6,15,16,0.001,0.021,0.062,0.3,0.002,0.009,15,31.8,45.8,WSW,1.5
H03,2020,6,15,17,0.002,0.026,0.068,0.3,0.002,0.01,19,31.7,47.7,WSW,1.9
H03,2020,6,15,18,0.001,0.024,0.071,0.3,0.001,0.009,18,31,51.5,W,2.3
H03,2020,6,15,19,0.002,0.022,0.068,0.3,0.001,0.007,17,29,56.6,W,3.5
H03,2020,6,15,20,0.001,0.022,0.048,0.3,0,0.006,17,27.3,58.2,WNW,2.9
H03,2020,6,15,21,0.001,0.017,0.054,0.3,0,0.004,14,26.2,50.6,NW,2.3
H03,2020,6,15,22,0.001,0.019,0.053,0.3,0,0.005,12,25.4,52.9,WNW,1.4
H03,2020,6,15,23,0.001,0.018,0.052,0.3,0,0.006,12,24.7,52.9,WNW,1.2
H03,2020,6,15,24,0.002,0.015,0.048,0.3,0,0.007,13,24,57.2,NW,1.1
H03,2020,6,16,1,0.002,0.017,0.045,0.3,0,0.007,12,23.6,60.3,NNW,0.7
H03,2020,6,16,2,0.001,0.018,0.036,0.3,0.001,0.01,12,22.8,64.2,NW,0.6
H03,2020,6,16,3,0.002,0.021,0.031,0.3,0.001,0.01,15,21.5,75.9,ENE,0.4
H03,2020,6,16,4,0.002,0.021,0.016,0.3,0.004,0.018,16,21.1,77,NNE,0.5
H03,2020,6,16,5,0.001,0.023,0.013,0.3,0.001,0.015,15,20.6,78.2,NE,0.7
H03,2020,6,16,6,0.001,0.025,0.011,0.3,0.004,0.017,17,21.5,72.6,NE,1
H03,2020,6,16,7,0.003,0.025,0.014,0.3,0.007,0.019,16,23,65.5,NNE,0.8
H03,2020,6,16,8,0.003,0.02,0.029,0.4,0.005,0.015,16,23.9,58.5,ENE,0.5
H03,2020,6,16,9,0.004,0.019,0.03,0.4,0.01,0.018,14,25.3,47.4,N,1.1
H03,2020,6,16,10,0.002,0.018,0.047,0.4,0.005,0.013,14,27.3,40.6,WSW,1.3
H03,2020,6,16,11,0.002,0.019,0.058,0.4,0.005,0.015,15,29,35.5,WSW,1.4
H03,2020,6,16,12,0.002,0.021,0.073,0.3,0.004,0.011,14,30.5,37.1,W,2
H03,2020,6,16,13,0.002,0.017,0.075,0.3,0.003,0.007,13,31.5,33.5,W,2.7
H03,2020,6,16,14,0.002,0.018,0.068,0.3,0.002,0.008,14,31.9,33.2,WSW,4.1
H03,2020,6,16,15,0.002,0.023,0.071,0.3,0.003,0.01,15,31.4,35.2,W,4.8
H03,2020,6,16,16,0.002,0.021,0.073,0.3,0.001,0.008,15,30.6,35.8,WNW,3.7
H03,2020,6,16,17,0.001,0.023,0.076,0.3,0.001,0.005,16,30.3,36.8,WNW,3.3
H03,2020,6,16,18,0.002,0.02,0.073,0.3,0.001,0.006,15,28.7,44.3,W,3.6
H03,2020,6,16,19,0.002,0.019,0.068,0.3,0.001,0.009,14,26.8,50.7,W,2.7
H03,2020,6,16,20,0.002,0.018,0.063,0.3,0,0.007,16,25.4,54.8,W,3.3
H03,2020,6,16,21,0.002,0.021,0.058,0.3,0,0.007,15,24.6,56.1,W,3
H03,2020,6,16,22,0.002,0.02,0.054,0.3,0,0.006,15,23.6,59.3,WNW,2.2
H03,2020,6,16,23,0.002,0.019,0.049,0.3,0,0.006,12,22.5,63.4,W,2.6
H03,2020,6,16,24,0.002,0.015,0.044,0.3,0,0.006,9,21.9,62.9,WNW,2.1
H03,2020,6,17,1,�Z����,0.011,0.038,�Z����,�Z����,�Z����,9,21.3,64.7,NW,2.5
H03,2020,6,17,2,0.003,0.009,0.036,0.3,0,0.006,8,20.6,68.7,NW,2.4
H03,2020,6,17,3,0.002,0.006,0.034,0.3,0,0.006,6,20.1,68.5,NW,1.2
H03,2020,6,17,4,0.001,0.006,0.031,0.3,0,0.007,5,19.5,69.6,NW,0.8
H03,2020,6,17,5,0.001,0.007,0.028,0.3,0,0.008,4,19.6,64.7,NNW,1.1
H03,2020,6,17,6,0.001,0.008,0.026,0.3,0.001,0.01,3,20.9,57.3,NW,1.5
H03,2020,6,17,7,0.002,0.009,0.029,0.3,0.003,0.009,4,22.4,50.9,NNE,1.2
H03,2020,6,17,8,0.002,0.004,0.032,0.3,0.004,0.008,3,23.9,41.5,NNW,1.1
H03,2020,6,17,9,0.002,0.004,0.034,0.3,0.006,0.008,3,26.6,36.1,WNW,1.8
H03,2020,6,17,10,0.002,0.007,0.039,0.3,0.005,0.01,6,28.1,32,WNW,1.4
H03,2020,6,17,11,0.002,0.014,0.053,0.3,0.003,0.008,9,28.7,35.1,E,0.9
H03,2020,6,17,12,0.002,0.019,0.066,0.3,0.004,0.011,12,30.5,34.8,SSW,2.3
H03,2020,6,17,13,0.002,0.019,0.081,0.3,0.003,0.01,16,30.6,38.5,SSW,1.9
H03,2020,6,17,14,0.001,0.021,0.082,0.3,0.002,0.007,16,30.2,41.4,S,2.1
H03,2020,6,17,15,0.001,0.02,0.077,0.3,0.002,0.005,12,29.8,39.9,SSE,2.7
H03,2020,6,17,16,0.001,0.016,0.074,0.3,0.001,0.006,11,29.5,42.2,SSE,2.1
H03,2020,6,17,17,0.001,0.02,0.075,0.3,0.001,0.006,14,28.6,49.9,SSE,2.3
H03,2020,6,17,18,0.001,0.016,0.073,0.3,0.001,0.007,12,27.3,56.5,SSE,1.8
H03,2020,6,17,19,0.001,0.021,0.071,0.3,0.001,0.007,16,26,64.7,S,1.5
H03,2020,6,17,20,0.001,0.023,0.065,0.3,0,0.006,15,25.1,69.5,S,0.9
H03,2020,6,17,21,0.001,0.022,0.062,0.3,0,0.005,12,24.5,69.3,SE,2.1
H03,2020,6,17,22,0.001,0.019,0.057,0.3,0,0.005,12,24.2,71.7,SSE,1.2
H03,2020,6,17,23,0.001,0.02,0.053,0.3,0,0.005,10,23.6,74.1,SE,1.1
H03,2020,6,17,24,0.001,0.018,0.05,0.3,0.001,0.005,11,23.3,75.6,SE,0.6
H03,2020,6,18,1,0.001,0.02,0.042,0.3,0,0.008,13,22.8,76.2,ESE,0.8
H03,2020,6,18,2,0.001,0.024,0.042,0.3,0.001,0.006,16,22.5,79.2,ENE,1
H03,2020,6,18,3,0.001,0.024,0.031,0.3,0,0.01,16,22.1,80.5,ENE,1.7
H03,2020,6,18,4,0.002,0.026,0.028,0.3,0.001,0.012,18,21.9,80.8,NE,1.4
H03,2020,6,18,5,0.002,0.028,0.025,0.3,0.001,0.013,18,21.9,80.3,ENE,1.2
H03,2020,6,18,6,0.002,0.025,0.025,0.4,0.003,0.015,17,22.2,78.9,NE,1.1
H03,2020,6,18,7,0.002,0.027,0.019,0.4,0.007,0.019,17,23,74.6,ESE,0.6
H03,2020,6,18,8,0.003,0.026,0.03,0.4,0.005,0.018,16,23.6,70.8,ESE,0.8
H03,2020,6,18,9,0.002,0.022,0.038,0.4,0.007,0.014,14,24.5,69.5,E,0.7
H03,2020,6,18,10,0.002,0.022,0.042,0.4,0.005,0.011,15,25.1,62.4,SSE,1.5
H03,2020,6,18,11,0.001,0.025,0.043,0.4,0.006,0.014,14,24.4,69.1,SE,2
H03,2020,6,18,12,0.001,0.025,0.044,0.4,0.005,0.016,17,23.4,81.5,S,0.8
H03,2020,6,18,13,0.001,0.021,0.041,0.4,0.008,0.015,14,22.5,83,SE,1.4
H03,2020,6,18,14,0.001,0.016,0.049,0.3,0.003,0.011,12,20.5,87.5,SW,3.6
H03,2020,6,18,15,0.001,0.012,0.049,0.3,0.003,0.012,10,20.1,86.1,SW,1.7
H03,2020,6,18,16,0.001,0.011,0.043,0.3,0.005,0.017,11,19.8,88.1,S,0.8
H03,2020,6,18,17,0.002,0.014,0.039,0.3,0.003,0.021,10,20,90.1,CALM,0.1
H03,2020,6,18,18,0.002,0.015,0.038,0.4,0.002,0.022,12,19.5,89.4,CALM,0.1
H03,2020,6,18,19,0.001,0.016,0.036,0.4,0.001,0.024,11,19.7,93,N,1
H03,2020,6,18,20,0.001,0.014,0.033,0.4,0.001,0.021,11,19.2,94,N,1.1
H03,2020,6,18,21,0.001,0.014,0.032,0.4,0,0.019,12,18.9,94.6,N,0.9
H03,2020,6,18,22,0.001,0.012,0.037,0.4,0,0.012,9,18.9,94.7,NE,0.8
H03,2020,6,18,23,0.001,0.011,0.036,0.4,0,0.011,9,19.1,93.7,NW,1
H03,2020,6,18,24,0.001,0.01,0.036,0.4,0,0.01,10,18.9,94.3,N,1.3
H03,2020,6,19,1,0.002,0.011,0.039,0.4,0,0.008,8,19.1,94.9,NW,1.4
H03,2020,6,19,2,0.001,0.006,0.042,0.4,0,0.006,7,18.6,96.1,N,1.2
H03,2020,6,19,3,0.002,0.006,0.041,0.4,0,0.007,6,18.5,96.9,NW,0.6
H03,2020,6,19,4,0.001,0.006,0.04,0.3,0,0.006,5,18.5,96.8,NNW,1.3
H03,2020,6,19,5,0.001,0.008,0.038,0.3,0,0.007,3,18.5,96.1,WNW,0.7
H03,2020,6,19,6,0.001,0.006,0.036,0.3,0,0.009,4,18.6,95.5,NW,1.1
H03,2020,6,19,7,0.001,0.004,0.031,0.3,0.001,0.012,5,18.5,95.3,N,1.3
H03,2020,6,19,8,0.001,0.004,0.029,0.3,0.003,0.013,4,19.2,94.1,NNW,1.4
H03,2020,6,19,9,0.001,0.004,0.029,0.3,0.002,0.012,1,19.5,93.3,NW,1.5
H03,2020,6,19,10,0.002,0.006,0.028,0.3,0.003,0.013,4,19.8,90.9,NNW,0.7
H03,2020,6,19,11,0.001,0.005,0.03,0.3,0.002,0.012,5,20.3,91,NW,0.6
H03,2020,6,19,12,0.001,0.004,0.033,0.3,0.002,0.011,4,20.5,90.5,W,1.2
H03,2020,6,19,13,0.001,0.007,0.035,0.3,0.003,0.013,6,21.2,87.1,WNW,1
H03,2020,6,19,14,0.001,0.005,0.041,0.3,0.002,0.012,4,21.2,88.1,WNW,1.5
H03,2020,6,19,15,0.001,0.004,0.042,0.3,0.002,0.012,4,21.3,90.5,WNW,1.4
H03,2020,6,19,16,0.001,0.004,0.044,0.3,0.003,0.014,4,21.2,89.9,W,0.9
H03,2020,6,19,17,0.001,0.004,0.045,0.3,0.002,0.011,2,21.9,88.3,CALM,0.2
H03,2020,6,19,18,0.001,0.003,0.042,0.3,0.002,0.011,3,22.5,82.6,W,1.2
H03,2020,6,19,19,0.001,0.003,0.043,0.3,0,0.009,3,22.4,82.9,W,1.5
H03,2020,6,19,20,0.001,0.008,0.039,0.3,0,0.012,8,21.5,83.1,W,1
H03,2020,6,19,21,0.002,0.011,0.036,0.3,0,0.011,9,21.5,81.5,NW,1.4
H03,2020,6,19,22,0.002,0.01,0.037,0.3,0,0.009,8,21.2,81.8,NW,1.4
H03,2020,6,19,23,0.001,0.012,0.037,0.3,0,0.009,8,20.9,80.1,NNW,1.3
H03,2020,6,19,24,0.001,0.012,0.039,0.3,0,0.007,8,20.3,82.3,WNW,1.1
H03,2020,6,20,1,0.001,0.013,0.032,0.3,0,0.009,11,20.3,82.5,N,1
H03,2020,6,20,2,0.001,0.015,0.03,0.3,0,0.009,10,19.2,87.8,NNW,0.3
H03,2020,6,20,3,0.001,0.013,0.026,0.3,0,0.009,9,18.5,90.1,ESE,0.6
H03,2020,6,20,4,0.001,0.016,0.015,0.3,0.002,0.014,13,18.3,91.9,NNE,0.8
H03,2020,6,20,5,0.001,0.013,0.01,0.3,0.002,0.013,8,18.3,90.2,N,0.6
H03,2020,6,20,6,0.001,0.013,0.013,0.3,0.004,0.014,6,19.8,75.1,NE,1.3
H03,2020,6,20,7,0.001,0.014,0.026,0.3,0.003,0.01,9,22.4,62.5,NW,2.3
H03,2020,6,20,8,0.001,0.012,0.033,0.3,0.005,0.008,7,24.8,54.7,NW,1.5
H03,2020,6,20,9,0.001,0.009,0.041,0.3,0.003,0.006,7,26.1,48.2,NW,2.7
H03,2020,6,20,10,0.001,0.01,0.046,0.3,0.002,0.003,7,27.5,42.2,WNW,2.1
H03,2020,6,20,11,0.001,0.014,0.047,0.3,0.006,0.007,10,28.5,41.4,NNW,2.1
H03,2020,6,20,12,0.001,0.014,0.045,0.2,0.004,0.009,7,29.5,38.9,NW,2.3
H03,2020,6,20,13,0.001,0.012,0.047,0.2,0.003,0.004,7,29,37.4,WNW,1.6
H03,2020,6,20,14,0.001,0.007,0.049,0.2,0.001,0.004,6,29.8,39.2,WSW,3.2
H03,2020,6,20,15,0.001,0.012,0.045,0.2,0.002,0.004,9,29.3,41,SW,2.6
H03,2020,6,20,16,0.001,0.01,0.044,0.2,0.002,0.005,8,28.7,45.8,WSW,3.1
H03,2020,6,20,17,0.001,0.01,0.039,0.2,0.002,0.005,10,27.8,47.7,WSW,2.5
H03,2020,6,20,18,0.001,0.012,0.039,0.2,0.002,0.005,9,27.8,46.9,WSW,1.9
H03,2020,6,20,19,0.001,0.009,0.038,0.2,0,0.005,7,25.5,54,WNW,2.3
H03,2020,6,20,20,0.001,0.01,0.034,0.2,0,0.006,10,23.9,59.7,NW,1.8
H03,2020,6,20,21,0.001,0.014,0.033,0.2,0.001,0.005,7,22.8,65.1,NW,1.1
H03,2020,6,20,22,0.001,0.013,0.028,0.2,0,0.006,9,22.7,68.7,CALM,0.2
H03,2020,6,20,23,0.001,0.015,0.024,0.2,0.001,0.008,8,21.9,70.6,W,0.3
H03,2020,6,20,24,0.001,0.013,0.026,0.3,0,0.006,9,21.6,69.8,N,0.4
H03,2020,6,21,1,0.001,0.012,0.021,0.3,0,0.006,10,20.6,79,E,0.3
H03,2020,6,21,2,0.001,0.012,0.02,0.3,0,0.006,8,20.9,73.7,NNW,1
H03,2020,6,21,3,0.002,0.01,0.025,0.3,0,0.005,9,20.7,73.9,N,1
H03,2020,6,21,4,0.001,0.012,0.02,0.3,0,0.005,8,20.1,81.5,NE,0.5
H03,2020,6,21,5,0.001,0.013,0.011,0.3,0.001,0.007,8,19.5,83.6,ENE,0.8
H03,2020,6,21,6,0.001,0.015,0.011,0.3,0.001,0.006,8,20.2,70.5,E,0.3
H03,2020,6,21,7,0.002,0.016,0.016,0.3,0.003,0.006,11,22.4,60.5,NNW,0.6
H03,2020,6,21,8,0.002,0.013,0.022,0.3,0.003,0.005,9,24.2,50.8,NNE,1.1
H03,2020,6,21,9,0.002,0.014,0.034,0.3,0.002,0.005,9,26.3,43.7,NNE,0.9
H03,2020,6,21,10,0.001,0.016,0.05,0.3,0.001,0.004,11,28.7,43.6,SSE,1.2
H03,2020,6,21,11,0.001,0.015,0.057,0.3,0.001,0.003,11,29.5,41.1,S,1.1
H03,2020,6,21,12,0.001,0.01,0.058,0.3,0,0.003,6,29.8,39.6,SSW,1.7
H03,2020,6,21,13,0.002,0.017,0.059,0.3,0.001,0.003,11,29.5,45.7,SE,2.4
H03,2020,6,21,14,0.004,0.024,0.07,0.3,0.001,0.008,16,28.5,51.9,SW,3.2
H03,2020,6,21,15,0.003,0.013,0.061,0.4,0.001,0.006,9,28.2,52.9,SSW,3.3
H03,2020,6,21,16,0.002,0.007,0.053,0.3,0.001,0.002,4,27.6,53.3,SSW,2.3
H03,2020,6,21,17,0.001,0.006,0.051,0.3,0,0.002,5,26.4,57.4,SSW,2.2
H03,2020,6,21,18,0.001,0.008,0.05,0.3,0,0.003,6,25.7,60.7,SSW,2
H03,2020,6,21,19,0.001,0.01,0.049,0.3,0,0.003,8,24.9,64.8,S,1.9
H03,2020,6,21,20,0.001,0.01,0.045,0.3,0,0.003,6,24.5,66.5,S,1.4
H03,2020,6,21,21,0.001,0.012,0.044,0.3,0,0.003,6,24.6,67.8,S,0.9
H03,2020,6,21,22,0.001,0.011,0.042,0.3,0,0.003,6,24.2,69.6,SSW,1.1
H03,2020,6,21,23,0.001,0.01,0.04,0.2,0,0.003,7,23.9,68.7,SSW,0.7
H03,2020,6,21,24,0.001,0.01,0.04,0.3,0,0.003,7,23.4,71.7,S,0.4
H03,2020,6,22,1,0.001,0.011,0.034,0.3,0,0.004,8,23,76.3,ENE,1.2
H03,2020,6,22,2,0.001,0.013,0.027,0.3,0,0.006,7,23.3,77,N,0.9
H03,2020,6,22,3,0.001,0.013,0.032,0.3,0,0.005,9,23.1,77.9,N,1
H03,2020,6,22,4,0.003,0.012,0.03,0.3,0,0.008,7,23.2,73.8,N,0.8
H03,2020,6,22,5,0.002,0.016,0.026,0.3,0.003,0.01,9,22.8,76.9,N,1.4
H03,2020,6,22,6,0.002,0.013,0.026,0.3,0.001,0.01,9,22.8,76.3,N,0.9
H03,2020,6,22,7,0.002,0.015,0.02,0.3,0.005,0.016,8,23,75.7,E,0.5
H03,2020,6,22,8,0.002,0.014,0.022,0.3,0.005,0.017,10,23.6,72.3,NE,0.4
H03,2020,6,22,9,0.002,0.015,0.023,0.3,0.011,0.015,9,23.9,69,SE,0.5
H03,2020,6,22,10,0.003,0.012,0.026,0.3,0.01,0.022,10,24.3,63.3,NNE,0.6
H03,2020,6,22,11,0.003,0.018,0.028,0.4,0.01,0.018,14,24.5,65.1,NNW,1
H03,2020,6,22,12,0.002,0.016,0.027,0.4,0.012,0.02,11,25.8,63.7,NE,1.4
H03,2020,6,22,13,0.002,0.019,0.041,0.4,0.005,0.015,12,26.9,54.6,NNW,1.8
H03,2020,6,22,14,0.002,0.021,0.048,0.4,0.004,0.01,11,28.3,51.8,NNW,2.9
H03,2020,6,22,15,0.002,0.016,0.045,0.3,0.004,0.008,13,29.6,44.6,NNW,2.6
H03,2020,6,22,16,0.002,0.011,0.05,0.3,0.002,0.005,6,30,40.2,N,3
H03,2020,6,22,17,0.001,0.003,0.056,0.3,0.001,0.003,3,30.3,33.6,NNE,2.6
H03,2020,6,22,18,0.001,0.007,0.05,0.3,0.002,0.007,6,29.1,44.1,ENE,2
H03,2020,6,22,19,0.001,0.005,0.049,0.3,0.002,0.006,5,28,49,N,1.5
H03,2020,6,22,20,0.001,0.012,0.042,0.3,0,0.005,11,26.4,58.3,WNW,2.8
H03,2020,6,22,21,0.002,0.013,0.038,0.3,0,0.007,10,25.5,60.7,W,1.8
H03,2020,6,22,22,0.002,0.015,0.036,0.3,0,0.007,9,25.4,61.3,NW,1.6
H03,2020,6,22,23,0.001,0.015,0.034,0.3,0,0.008,10,24.9,62.7,WNW,1.6
H03,2020,6,22,24,0.002,0.014,0.033,0.3,0,0.007,11,24.8,62.7,NW,1.1
H03,2020,6,23,1,0.002,0.016,0.03,0.3,0,0.01,11,24.4,64.2,WNW,0.7
H03,2020,6,23,2,0.002,0.015,0.031,0.3,0,0.008,10,23.9,66.6,NNW,1.1
H03,2020,6,23,3,0.002,0.015,0.03,0.3,0,0.008,10,23.6,69.1,NW,0.5
H03,2020,6,23,4,0.002,0.015,0.028,0.3,0,0.008,12,23.3,70.7,NW,1.2
H03,2020,6,23,5,0.001,0.014,0.027,0.3,0,0.008,10,23.3,71,NNW,1.1
H03,2020,6,23,6,0.001,0.014,0.027,0.3,0.001,0.008,8,24.8,54.4,NW,1.6
H03,2020,6,23,7,0.001,0.011,0.028,0.3,0.003,0.008,10,25.7,51.3,NNW,1.8
H03,2020,6,23,8,0.001,0.011,0.031,0.3,0.003,0.007,8,27.3,41.8,WNW,1.8
H03,2020,6,23,9,0.001,0.016,0.037,0.3,0.005,0.008,9,29,38.9,NW,1.9
H03,2020,6,23,10,0.001,0.016,0.045,0.3,0.003,0.007,10,30.9,36.2,W,1.3
H03,2020,6,23,11,0.002,0.012,0.055,0.3,0.005,0.007,7,30,34.3,ENE,1.5
H03,2020,6,23,12,0.002,0.012,0.065,0.3,0.002,0.006,8,31.8,33.8,SSE,1.3
H03,2020,6,23,13,0.001,0.012,0.07,0.3,0.002,0.005,10,32.2,34.5,SSE,2.2
H03,2020,6,23,14,0.002,0.017,0.078,0.3,0.003,0.008,17,32.9,34.9,S,2.2
H03,2020,6,23,15,0.004,0.022,0.093,0.3,0.002,0.011,15,31.8,43.4,S,2.5
H03,2020,6,23,16,0.002,0.023,0.076,0.3,0.002,0.007,15,30.3,45.7,SSW,3
H03,2020,6,23,17,0.002,0.018,0.067,0.3,0.001,0.006,14,29.6,49.9,S,1.8
H03,2020,6,23,18,0.002,0.014,0.065,0.3,0.001,0.007,13,28.3,48.1,S,1.5
H03,2020,6,23,19,0.002,0.012,0.061,0.3,0.001,0.006,11,27.5,50,SE,2.7
H03,2020,6,23,20,0.001,0.011,0.058,0.3,0,0.005,9,26.8,55.7,SE,1.7
H03,2020,6,23,21,0.001,0.016,0.055,0.3,0,0.005,12,26.1,62.6,SSE,1.2
H03,2020,6,23,22,0.001,0.016,0.053,0.3,0,0.006,10,25.8,67.5,S,0.8
H03,2020,6,23,23,0.001,0.017,0.052,0.3,0,0.005,13,25.6,69.9,SSE,0.7
H03,2020,6,23,24,0.001,0.017,0.051,0.3,0,0.004,11,25.4,71,SW,1
H03,2020,6,24,1,�Z����,0.016,0.048,�Z����,�Z����,�Z����,11,25.1,72.3,NNW,1.2
H03,2020,6,24,2,0.002,0.021,0.037,0.3,0,0.01,11,24.8,71.1,NE,1.5
H03,2020,6,24,3,0.002,0.021,0.034,0.3,0,0.009,13,24.8,73,ENE,0.9
H03,2020,6,24,4,0.002,0.02,0.031,0.3,0.001,0.009,15,24.6,75.3,ENE,0.5